Retour au catalogue

CZ-6A DEB

ActifPO
NORAD 61370·DEBRIS·🇨🇳 China

Lancé Aug 6, 2024 depuis Taiyuan Satellite Launch Center

Loading…

Prochains Passages (prochaines 24 heures)

TLE

FraisSource: Space-Track

Époque: Sep 14, 2026, 00:49 UTC

1 61370U 24140WK  26257.03454409  .00001710  00000-0  11242-2 0  9990
2 61370  89.0092 270.1818 0238816  62.8093 299.7203 13.88532069102505

Suivez CZ-6A DEB en temps réel avec AllMySat

Download on the App Store